FW8630 Weather Reports


time (UTC)temp
C
wind
direction
speed
KPH
gust
KPH
rain 1hr
cm
rain 24hr
cm
rain mn
cm
humidity
%
barometer
mb
20260507131533 13 306 9.7 30.6 0.00 0.00 0.00 56 1018.4
20260507130026 13 320 8.0 24.1 0.00 0.00 0.00 56 1018.2
20260507124530 13 13 9.7 19.3 0.00 0.00 0.00 58 1018.1
20260507123023 13 340 9.7 22.5 0.00 0.00 0.00 58 1017.9
20260507121522 13 300 16.1 25.7 0.00 0.00 0.00 57 1017.8
20260507120026 13 299 12.9 22.5 0.00 0.00 0.00 55 1017.7
20260507114520 13 312 9.7 19.3 0.00 0.00 0.00 55 1017.6
20260507113019 13 307 8.0 20.9 0.00 0.00 0.00 52 1017.7
20260507111517 13 325 9.7 19.3 0.00 0.00 0.00 53 1017.8
20260507110017 13 312 8.0 20.9 0.00 0.00 0.00 55 1017.8
20260507104514 13 278 9.7 24.1 0.00 0.00 0.00 59 1017.7
20260507103013 13 336 11.3 22.5 0.00 0.00 0.00 56 1017.5
20260507101515 13 355 12.9 20.9 0.00 0.00 0.00 61 1017.4
20260507100009 12 312 9.7 20.9 0.00 0.00 0.00 56 1017.7
20260507094508 12 331 6.4 14.5 0.00 0.00 0.00 58 1017.2
20260507093004 12 24 1.6 17.7 0.00 0.00 0.00 53 1017.2
20260507091600 12 61 3.2 16.1 0.00 0.00 0.00 54 1017.1
20260507090101 11 9 4.8 17.7 0.00 0.00 0.00 53 1017.1
20260507084559 11 19 4.8 19.3 0.00 0.00 0.00 56 1016.9
20260507083052 10 348 9.7 22.5 0.00 0.00 0.00 55 1016.7
20260507081548 10 294 4.8 19.3 0.00 0.00 0.00 57 1016.8
20260507080100 10 336 6.4 20.9 0.00 0.00 0.00 57 1016.9
20260507074543 10 320 3.2 17.7 0.00 0.00 0.00 61 1016.7
20260507073041 10 346 12.9 22.5 0.00 0.00 0.00 59 1016.8
20260507071539 9 44 9.7 17.7 0.00 0.00 0.00 63 1016.7
20260507070038 9 319 9.7 20.9 0.00 0.00 0.00 65 1016.7
20260507064536 9 336 9.7 24.1 0.00 0.00 0.00 67 1016.5
20260507063031 9 18 9.7 19.3 0.00 0.00 0.00 74 1016.6
20260507061527 8 19 4.8 14.5 0.00 0.00 0.00 77 1016.7
20260507060027 7 355 8.0 14.5 0.00 0.00 0.00 81 1016.5
20260507054524 5 19 4.8 16.1 0.00 0.00 0.00 86 1016.5
20260507053014 3 355 4.8 12.9 0.00 0.00 0.00 89 1016.5
20260507051509 2 333 0.0 3.2 0.00 0.00 0.00 89 1016.5
20260507050007 2 333 0.0 3.2 0.00 0.00 0.00 89 1016.5
20260507044505 1 333 1.6 3.2 0.00 0.00 0.00 91 1016.5
20260507043006 0 333 0.0 3.2 0.00 0.00 0.00 92 1016.4
20260507041600 0 333 1.6 3.2 0.00 0.00 0.00 92 1016.4
20260507033051 -1 55 0.0 0.0 0.00 0.00 0.00 94 1016.2
20260507031546 -1 55 0.0 3.2 0.00 0.00 0.00 96 1016.1
20260507021544 0 55 1.6 4.8 0.00 0.00 0.00 96 1015.8
20260507020057 0 53 0.0 4.8 0.00 0.00 0.00 96 1015.7
20260507014536 0 52 1.6 6.4 0.00 0.00 0.00 96 1015.8
20260507013047 0 46 1.6 6.4 0.00 0.00 0.00 96 1015.7
20260507011534 0 62 3.2 8.0 0.00 0.00 0.00 96 1015.7
20260507010036 0 51 3.2 9.7 0.00 0.00 0.00 97 1015.6
20260507004530 0 64 3.2 6.4 0.00 0.00 0.00 97 1015.6
20260507003040 0 56 3.2 8.0 0.00 0.00 0.00 97 1015.7
20260507001530 0 58 3.2 8.0 0.00 0.00 0.00 97 1015.6
20260507000033 0 53 3.2 8.0 0.00 0.00 0.00 96 1015.7
20260506234527 0 47 3.2 8.0 0.00 0.00 0.00 96 1015.6
20260506233022 1 63 3.2 8.0 0.00 0.00 0.00 96 1015.7
20260506231520 1 40 4.8 8.0 0.00 0.00 0.00 95 1015.8
20260506230020 1 67 3.2 6.4 0.00 0.00 0.00 95 1015.8
20260506224517 1 65 1.6 6.4 0.00 0.00 0.00 95 1015.7
20260506223014 1 92 3.2 6.4 0.00 0.00 0.00 94 1015.8
20260506221512 2 41 3.2 8.0 0.00 0.00 0.00 94 1015.5
20260506220010 2 44 6.4 14.5 0.00 0.00 0.00 94 1015.4
20260506214509 2 42 4.8 9.7 0.00 0.00 0.00 94 1015.3
20260506213007 2 48 4.8 8.0 0.00 0.00 0.00 93 1015.3
20260506211509 3 49 3.2 6.4 0.00 0.00 0.00 92 1015.2
20260506210007 3 46 3.2 8.0 0.00 0.00 0.00 91 1015.2
20260506204506 3 49 3.2 8.0 0.00 0.00 0.00 90 1015.3
20260506203005 4 49 4.8 8.0 0.00 0.00 0.00 89 1015.1
20260506201506 4 50 3.2 8.0 0.00 0.00 0.00 88 1015.1
20260506200004 5 48 3.2 11.3 0.00 0.00 0.00 86 1015.1
20260506194504 5 51 6.4 12.9 0.00 0.00 0.00 85 1015.1
20260506193003 5 58 6.4 14.5 0.00 0.00 0.00 83 1015.0
20260506191503 6 30 6.4 11.3 0.00 0.00 0.00 81 1014.9
20260506190007 6 49 4.8 9.7 0.00 0.00 0.00 78 1015.0
20260506184502 6 52 4.8 17.7 0.00 0.00 0.00 76 1015.0
20260506183106 7 63 6.4 17.7 0.00 0.00 0.00 75 1014.8
20260506181623 7 38 8.0 19.3 0.00 0.00 0.00 73 1014.9
20260506180059 7 56 4.8 19.3 0.00 0.00 0.00 72 1014.7
20260506174558 7 37 9.7 22.5 0.00 0.00 0.00 70 1014.7
20260506173106 8 53 9.7 20.9 0.00 0.00 0.00 68 1014.7
20260506171600 8 58 6.4 24.1 0.00 0.00 0.00 66 1014.7
20260506170057 8 48 9.7 19.3 0.00 0.00 0.00 64 1014.7
20260506164607 8 51 4.8 17.7 0.00 0.00 0.00 65 1014.8
20260506163055 8 98 11.3 20.9 0.00 0.00 0.00 62 1014.7
20260506161555 8 27 6.4 24.1 0.00 0.00 0.00 63 1014.9
20260506154601 9 44 14.5 27.4 0.00 0.00 0.00 60 1014.9
20260506153111 9 62 8.0 22.5 0.00 0.00 0.00 62 1014.8
20260506151553 9 16 14.5 22.5 0.00 0.00 0.00 60 1014.9
20260506150059 10 108 11.3 25.7 0.00 0.00 0.00 59 1015.0
20260506144557 10 86 4.8 25.7 0.00 0.00 0.00 61 1014.9
20260506143050 10 61 9.7 25.7 0.00 0.00 0.00 60 1015.0
20260506141551 10 46 8.0 20.9 0.00 0.00 0.00 61 1014.9
20260506140050 10 56 9.7 24.1 0.00 0.00 0.00 61 1014.9
20260506134550 10 74 12.9 25.7 0.00 0.00 0.00 56 1014.9
20260506133049 10 68 12.9 29.0 0.00 0.00 0.00 57 1014.8